Location: Newark
(45.2500°N, 7.5833°E)
Time: 02:12:14
(UTC+00:00)

N. Korean satellite - Visible Passes

Search period start: 15 December 2019 00:00
Search period end: 25 December 2019 00:00
Orbit: 455 x 507 km, 97.2° (Epoch: 14 December)

Date Brightness Start Highest point End Pass type
(mag) Time Alt. Az. Time Alt. Az. Time Alt. Az.
15 Dec 9.6 04:29:29 10° NE 04:31:44 16° E 04:33:58 10° SE visible
15 Dec 7.2 06:02:05 10° N 06:05:15 32° WNW 06:08:21 10° SW visible
15 Dec 7.0 16:38:41 10° S 16:42:21 68° W 16:46:01 10° NNW visible
16 Dec 6.3 05:36:24 10° N 05:39:54 69° WNW 05:43:19 10° SSW visible
16 Dec 10.2 17:49:45 10° WSW 17:50:40 11° W 17:51:34 10° WNW visible
17 Dec 7.2 05:11:01 10° NNE 05:14:27 53° E 05:17:48 10° S visible
17 Dec 9.5 17:22:11 10° SW 17:25:01 21° W 17:27:50 10° NW visible
18 Dec 8.8 04:45:58 10° NE 04:48:54 25° E 04:51:48 10° SSE visible
18 Dec 7.8 06:19:31 10° NNW 06:22:10 21° WNW 06:24:47 10° WSW visible
18 Dec 8.1 16:55:58 10° S 16:59:27 40° W 17:02:55 10° NNW visible
19 Dec 9.9 04:21:37 10° ENE 04:23:15 13° E 04:24:52 10° ESE visible
19 Dec 6.9 05:53:35 10° N 05:56:52 40° WNW 06:00:06 10° SW visible
19 Dec 6.7 16:30:18 10° SSE 16:33:58 86° WSW 16:37:37 10° NNW visible
20 Dec 6.3 05:27:59 10° NNE 05:31:29 88° WNW 05:34:54 10° SSW visible
20 Dec 9.9 17:40:24 10° WSW 17:42:12 13° W 17:44:00 10° WNW visible
21 Dec 7.8 05:02:41 10° NNE 05:06:00 41° E 05:09:15 10° S visible
21 Dec 9.1 17:13:30 10° SSW 17:16:34 25° W 17:19:37 10° NW visible
22 Dec 9.2 04:37:47 10° NE 04:40:25 20° E 04:43:01 10° SE visible
22 Dec 7.5 06:10:55 10° NNW 06:13:47 25° WNW 06:16:39 10° SW visible
22 Dec 7.6 16:47:28 10° S 16:51:02 51° W 16:54:33 10° NNW visible
23 Dec 10.1 04:14:31 10° E 04:14:44 10° E 04:14:56 10° E visible
23 Dec 6.5 05:45:06 10° N 05:48:28 51° WNW 05:51:47 10° SSW visible
23 Dec 6.5 16:21:57 10° SSE 16:25:34 74° ENE 16:29:10 10° N visible
24 Dec 6.6 05:19:35 10° NNE 05:23:02 71° ESE 05:26:27 10° S visible
24 Dec 9.8 17:31:24 10° SW 17:33:42 16° W 17:36:01 10° NW visible
